User: anonymous   Login
Location: Catstown
(52.4386°N, 7.2633°W)
Time: 16:54:40
(UTC+00:00)
Language:

Cosmos 1743 - Orbit

View from above orbital plane
View from above orbital plane
View from above satellite
View from above satellite

Ground track
Ground track

The orbit data is extracted from the following two-line orbital elements,

1 16719U 86034A   20333.39976464 +.00001206 +00000-0 +61414-4 0  9993
2 16719 082.5529 196.7440 0010592 232.6196 300.3575 15.15818552886268
Epoch (UTC): 28 November 2020 09:35:39
Eccentricity: 0.0010592
inclination: 82.5529°
perigee height: 511 km
apogee height: 526 km
right ascension of ascending node: 196.7440°
argument of perigee: 232.6196°
revolutions per day: 15.15818552
mean anomaly at epoch: 300.3575°
orbit number at epoch: 88626

The dashed part of the orbit path shows where the satellite is in the earth's shadow,  

DLR